This is the latest recevied weather packets stored in our database for station/object KF4UQS-14. If no packets are shown the sender has not sent any weather packets the latest 10 day(s).
| Time | Temp. | Humidity | Pressure | Rain* | Wind** | Luminosity | Snow |
|---|---|---|---|---|---|---|---|
| 1777755720 | 13.89° C | 64% | 1011 hPa | 0 mm | - | 209 W/m² | - |
| 1777755417 | 13.89° C | 65% | 1011.1 hPa | 0 mm | - | 198 W/m² | - |
| 1777755113 | 13.89° C | 67% | 1011 hPa | 0 mm | - | 170 W/m² | - |
| 1777754810 | 13.33° C | 67% | 1011.1 hPa | 0 mm | - | 160 W/m² | - |
| 1777754508 | 13.33° C | 68% | 1011 hPa | 0 mm | - | 153 W/m² | - |
| 1777754205 | 13.33° C | 70% | 1010.9 hPa | 0 mm | - | 147 W/m² | - |
| 1777753903 | 13.89° C | 71% | 1011 hPa | 0 mm | - | 188 W/m² | - |
| 1777753597 | 13.89° C | 71% | 1010.9 hPa | 0 mm | - | 241 W/m² | - |
| 1777753296 | 13.89° C | 73% | 1010.9 hPa | 0 mm | - | 252 W/m² | - |
| 1777752992 | 13.89° C | 78% | 1010.9 hPa | 0 mm | - | 292 W/m² | - |
| 1777752689 | 13.33° C | 79% | 1011.1 hPa | 0 mm | - | 260 W/m² | - |
| 1777752384 | 13.33° C | 78% | 1011.3 hPa | 0 mm | - | 291 W/m² | - |
| 1777752082 | 13.33° C | 79% | 1011.2 hPa | 0 mm | - | 297 W/m² | - |
| 1777751780 | 12.78° C | 80% | 1011.1 hPa | 0 mm | - | 201 W/m² | - |
| 1777751475 | 12.78° C | 80% | 1011.3 hPa | 0 mm | - | 191 W/m² | - |
| 1777751173 | 12.78° C | 80% | 1011.2 hPa | 0 mm | - | 236 W/m² | - |
| 1777750869 | 12.78° C | 80% | 1011.6 hPa | 0 mm | - | 166 W/m² | - |
| 1777750566 | 12.78° C | 78% | 1011.6 hPa | 0 mm | - | 184 W/m² | - |
| 1777750262 | 12.78° C | 81% | 1011.8 hPa | 0 mm | - | 142 W/m² | - |
| 1777749957 | 12.78° C | 79% | 1011.7 hPa | 0 mm | - | 152 W/m² | - |
| 1777749655 | 12.78° C | 79% | 1011.3 hPa | 0 mm | - | 152 W/m² | - |
| 1777749352 | 12.78° C | 83% | 1011.4 hPa | 0 mm | - | 166 W/m² | - |
| 1777749050 | 12.78° C | 83% | 1011.6 hPa | 0 mm | - | 157 W/m² | - |
| 1777748747 | 12.78° C | 83% | 1011.8 hPa | 0 mm | - | 172 W/m² | - |
| 1777748444 | 13.33° C | 85% | 1012 hPa | 0 mm | - | 193 W/m² | - |
* Rain latest hour (hover to see other rain measurements)
** Current wind speed in m/s (hover to see current wind gust speed)